Regional Weather Roundup
Issued by NWS

Home | Current Version | Previous Version | Graphics & Text | Print | Product List | Glossary On
Versions: 1 2 3 4 5 6 7 8 9 10 11 12 13 14 15 16 17 18 19 20 21 22 23 24 25 26 27 28 29 30 31 32 33 34 35 36 37 38 39 40 41 42 43 44 45 46 47 48 49 50
000
ASUS43 KMKX 170821
RWRWI

WISCONSIN REGIONAL WEATHER ROUNDUP
NATIONAL WEATHER SERVICE MILWAUKEE/SULLIVAN WI
200 AM CST FRI NOV 17 2017

NOTE: "FAIR" INDICATES FEW OR NO CLOUDS BELOW 12,000 FEET WITH NO
SIGNIFICANT WEATHER AND/OR OBSTRUCTIONS TO VISIBILITY.

WIZ001-002-006>008-014>016-023>028-170900-
NORTHWEST WISCONSIN

CITY           SKY/WX    TMP DP  RH WIND       PRES   REMARKS
SUPERIOR ARPT  CLOUDY    33  26  74 SE3       29.90F
ASHLAND        CLOUDY    33  24  69 S10G21    29.96F WCI  25
HAYWARD        CLOUDY    33  24  69 S13G29    29.94F WCI  24
SIREN          CLOUDY    34  26  74 S16       29.90F WCI  23
CUMBERLAND     CLOUDY    32  27  80 S15G23    29.94S WCI  22
RICE LAKE      CLOUDY    32  27  79 SE14      29.98F WCI  22
CHETEK         CLOUDY    32  27  80 SE17      29.99F WCI  21
LADYSMITH      CLOUDY    32  26  78 SE12G18   30.02F WCI  23
EAU CLAIRE     CLOUDY    33  26  75 SE12G22   30.01F WCI  24
MENOMONIE      CLOUDY    34  28  81 SE12G18   30.00F WCI  25
NEW RICHMOND   CLOUDY    33  27  77 SE13G18   29.93F WCI  24
OSCEOLA        CLOUDY    34  28  77 SE15G22   29.92F WCI  24
$$

WIZ003>005-009-010-017-018-170900-
NORTH CENTRAL WISCONSIN

CITY           SKY/WX    TMP DP  RH WIND       PRES   REMARKS
MANITOWISH WTR CLOUDY    28  27  96 SE13G18   30.01F WCI  17
ARBOR VITAE    CLOUDY    32  28  87 S15       30.03F WCI  21
WOODRUFF       CLOUDY    32  28  87 S15       30.03F WCI  21
RHINELANDER    CLOUDY    28  25  88 S14G20    30.07F WCI  17
EAGLE RIVER    CLOUDY    27  22  82 S9        30.05F WCI  18
LAND O LAKES   CLOUDY    27  24  90 SE12G20   30.05F WCI  17
PHILLIPS       CLOUDY    29  26  86 S14G22    30.02R WCI  19
TOMAHAWK       CLOUDY    28  24  85 S5        30.06S WCI  23
MEDFORD        CLOUDY    29  26  86 SE13G21   30.03F WCI  19
MERRILL        CLOUDY    30  26  86 SE7       30.09S WCI  23
$$

WIZ029-030-035-036-043>047-170900-
CENTRAL WISCONSIN

CITY           SKY/WX    TMP DP  RH WIND       PRES   REMARKS
WAUSAU         CLOUDY    30  25  81 SE13      30.08F WCI  20
MOSINEE        NOT AVBL
MARSHFIELD     CLOUDY    31  25  78 SE14      30.06S WCI  21
STEVENS POINT  CLOUDY    30  26  85 SE10      30.10F WCI  21
WAUPACA        CLOUDY    35  28  78 S6        30.16S WCI  29
WAUTOMA        CLOUDY    33  27  78 SE12      30.13F WCI  24
WISC RAPIDS    CLOUDY    32  26  78 S9        30.11F WCI  24
CAMP DOUGLAS   CLOUDY    33  27  78 SE17G23   30.06F WCI  23
$$

WIZ011>013-019>022-031-037>040-048>050-170900-
NORTHEAST WISCONSIN

CITY           SKY/WX    TMP DP  RH WIND       PRES   REMARKS
ANTIGO         CLOUDY    28  25  90 SE10      30.10F WCI  18
SHAWANO        CLOUDY    32  27  79 CALM      30.15F
OCONTO         CLOUDY    31  26  80 CALM      30.18F
STURGEON BAY   CLOUDY    32  27  81 CALM      30.20F
GREEN BAY      CLOUDY    32  28  85 E6        30.16F WCI  26
MANITOWOC      MIX PCPN  32  30  93 E6        30.19F WCI  26
APPLETON       CLOUDY    32  27  80 SE9       30.12F WCI  24
CLINTONVILLE   CLOUDY    30  25  80 SE6       30.14F WCI  24
OSHKOSH        CLOUDY    33  29  85 SE6       30.14F WCI  28
$$

WIZ032>034-041-042-053>061-170900-
SOUTHWEST WISCONSIN

CITY           SKY/WX    TMP DP  RH WIND       PRES   REMARKS
LA CROSSE      CLOUDY    36  28  73 S15       30.04F WCI  27
SPARTA         CLOUDY    33  28  82 SE7       30.07S WCI  27
VIROQUA        CLOUDY    32  30  94 SE14      30.05R WCI  22
BOSCOBEL       CLOUDY    35  28  75 VRB3      30.11F
PRAIRIE DU CHI CLOUDY    34  28  77 SE9       30.08F WCI  27
PLATTEVILLE    CLOUDY    32  31  95 SE12G18   30.08F WCI  23
$$

WIZ056-057-062-063-064-067-068-170900-
SOUTH CENTRAL WISCONSIN

CITY           SKY/WX    TMP DP  RH WIND       PRES   REMARKS
REEDSBURG      CLOUDY    32  28  82 SE7       30.10F WCI  26
BARABOO/DELLS  CLOUDY    32  27  81 S12G18    30.09F WCI  23
LONE ROCK      CLOUDY    34  28  79 SE10      30.11F WCI  26
MINERAL POINT  MOCLDY    34  32  93 SE18      30.07F WCI  23
MADISON        CLOUDY    33  28  81 SE12      30.13F WCI  24
MIDDLETON      CLOUDY    35  29  80 S13       30.12F WCI  26
WATERTOWN      CLOUDY    32  30  92 S5        30.14F WCI  28
MONROE         CLOUDY    32  28  86 SE10      30.12F WCI  24
JANESVILLE     CLOUDY    34  30  86 SE8       30.15F WCI  27
$$

WIZ051-052-058>065-066-070>072-170900-
SOUTHEAST WISCONSIN

CITY           SKY/WX    TMP DP  RH WIND       PRES   REMARKS
MILWAUKEE      CLOUDY    36  30  79 SE6       30.16F WCI  31
WAUKESHA       CLOUDY    32  28  86 SE7       30.15F WCI  26
MILWAUKEE/TIMM CLOUDY    34  28  80 S5        30.18F WCI  30
RACINE         CLOUDY    36  30  79 W5        30.21R WCI  32
BURLINGTON     CLOUDY    36  34  91 SE5       30.17F WCI  32
KENOSHA        CLOUDY    36  30  79 CALM      30.19S
FOND DU LAC    CLOUDY    34  28  79 S5        30.15F WCI  30
SHEBOYGAN      MOCLDY    33  33 100 E3        30.16F
WEST BEND      CLOUDY    32  32 100 SE5       30.15F WCI  27
JUNEAU         CLOUDY    32  28  85 SE6       30.15F WCI  26
$$

LSZ147-162-170900-
LAKE SUPERIOR

STATION/POSITION TIME  TEMP    WIND        PRES    WAVE
                       AIR SEA DIR/SP/G            HT/PER
                 (UTC) (F)     (DEG/KT/KT) (MB)    (FT/S)
DEVILS ISLAND    0800   34     160/  8/ 11 1015.6F
SAXON HARBOR     0740   33     190/  7/ 13 1014.9F
$$

LMZ867-665-643>646-170900-
LAKE MICHIGAN

STATION/POSITION TIME  TEMP    WIND        PRES    WAVE
                       AIR SEA DIR/SP/G            HT/PER
                 (UTC) (F)     (DEG/KT/KT) (MB)    (FT/S)
N MID LAKE BUOY  0750   35 49  150/ 10/ 12 1024.0F   1/ 3
NORTHPORT PIER   0813   35     170/  5/ 13 1022.4F
KEWAUNEE LAKESHO 0754   32     290/  2/  6 1021.6F
SHEBOYGAN LAKESH 0800   36     180/  4/  5 1022.5F
PORT WASHINGTON  0730   39     150/  7/  9 1023.0F
MILWAUKEE LAKESH 0800   37     220/  7/  8   N/A
S MID LAKE BUOY  0750   41 50  100/ 10/ 12 1023.1F   3/ 7
KENOSHA   LAKESH 0800   36     270/  4/  6 1022.7
$$

TC  - TEMPERATURE IN CELSIUS
VSB - VISIBILITY IN STATUTE MILES
WCI - WIND CHILL INDEX
HX  - HEAT INDEX





USA.gov is the U.S. government's official web portal to all federal, state and local government web resources and services.